Flag for United Kingdom Weather past 2 weeks in Leeds, England, United Kingdom

Now
57 °F

Passing clouds.


Feels Like: 56 °F
Forecast: 46 / 64 °F
Wind: 7 mph from Southwest

Location: Leeds And Bradford

Current Time: Oct 1, 2014 at 5:23:47 AM

Latest Report: Oct 1, 2014 at 4:50 AM


Visibility: N/A

Pressure: 30.09 "Hg

Humidity: 94%

Dew point: 55 °F

Location of LeedsLocation

Historic Weather in Leeds — Graph

°F

Leeds temperature yesterday

Maximum temperature yesterday: 66 °F (at 1:20 PM)
Minimum temperature yesterday: 54 °F (at 3:50 AM)
Average temperature yesterday: 59 °F

Past Weeks' High & Low Weather Summary

 TemperatureHumidityPressure
High66 °F (Sep 18, 4:50 PM)100% (Sep 16, 4:20 AM)30.33 "Hg (Sep 16, 4:20 AM)
Low43 °F (Sep 22, 12:50 AM)59% (Sep 21, 3:20 PM)29.80 "Hg (Sep 24, 4:50 AM)
Average56 °F90%30.08 "Hg
* Reported Sep 16 4:20 AM — Oct 1 4:20 AM, Leeds, Weather by CustomWeather, © 2014

Note: Actual official high and low records may vary slightly from our data, if they occured in-between our weather recording intervals... More about our weather records

Advertising

Leeds weather history for previous 24 hours

 ConditionsComfort  
Time TempWeatherWind HumidityBarometerVisibility
4:20 AM
Oct 1
57 °FPassing clouds.10 mph94%30.09 "HgN/A
3:50 AM57 °FPassing clouds.10 mph94%30.09 "HgN/A
3:20 AM59 °FPassing clouds.9 mph88%30.09 "HgN/A
2:50 AM59 °FPassing clouds.8 mph88%30.09 "HgN/A
2:20 AM59 °FPassing clouds.8 mph88%30.09 "HgN/A
1:50 AM59 °FPassing clouds.7 mph88%30.09 "HgN/A
1:20 AM57 °FPassing clouds.6 mph94%30.09 "Hg5 mi
12:20 AM57 °FPassing clouds.7 mph94%30.09 "Hg5 mi
11:50 PM
Sep 30
59 °FPassing clouds.8 mph88%30.09 "HgN/A
11:20 PM59 °FPassing clouds.7 mph88%30.09 "HgN/A
10:50 PM59 °FSprinkles. Passing clouds.7 mph88%30.12 "HgN/A
10:20 PM59 °FSprinkles. Passing clouds.7 mph88%30.12 "HgN/A
9:50 PM59 °FSprinkles. Passing clouds.7 mph88%30.12 "HgN/A
9:20 PM59 °FPassing clouds.7 mph82%30.12 "HgN/A
8:50 PM59 °FPassing clouds.7 mph82%30.12 "HgN/A
8:20 PM59 °FPassing clouds.7 mph82%30.12 "HgN/A
7:50 PM59 °FPassing clouds.7 mph82%30.12 "HgN/A
7:20 PM59 °FPassing clouds.6 mph82%30.12 "HgN/A
6:50 PM59 °FPassing clouds.6 mph77%30.12 "HgN/A
6:20 PM59 °FSunny.5 mph77%30.12 "Hg10 mi
5:50 PM61 °FPassing clouds.6 mph77%30.12 "HgN/A
5:20 PM63 °FPassing clouds.8 mph73%30.12 "HgN/A
4:50 PM63 °FScattered clouds.7 mph73%30.12 "HgN/A
4:20 PM63 °FPassing clouds.8 mph73%30.12 "HgN/A
3:50 PM64 °FPassing clouds.9 mph68%30.12 "HgN/A
3:20 PM64 °FScattered clouds.8 mph68%30.15 "HgN/A
2:50 PM64 °FScattered clouds.8 mph68%30.15 "HgN/A
2:20 PM66 °FScattered clouds.8 mph64%30.15 "HgN/A
1:50 PM66 °FPassing clouds.10 mph64%30.15 "HgN/A
1:20 PM66 °FPassing clouds.9 mph64%30.15 "HgN/A
12:50 PM64 °FPassing clouds.8 mph73%30.15 "HgN/A
12:20 PM63 °FScattered clouds.8 mph77%30.15 "HgN/A
11:50 AM63 °FPassing clouds.7 mph77%30.15 "HgN/A
11:20 AM63 °FPassing clouds.7 mph77%30.15 "HgN/A
10:50 AM61 °FPassing clouds.7 mph83%30.15 "HgN/A
10:20 AM57 °FPassing clouds.7 mph94%30.15 "HgN/A
9:50 AM57 °FPassing clouds.7 mph94%30.15 "Hg5 mi
9:20 AM55 °FPassing clouds.3 mph94%30.12 "Hg5 mi
8:50 AM54 °FPassing clouds.5 mph100%30.12 "Hg5 mi
8:20 AM54 °FPassing clouds.7 mph94%30.12 "Hg5 mi
7:50 AM54 °FPassing clouds.6 mph94%30.12 "HgN/A
7:20 AM54 °FPassing clouds.7 mph94%30.12 "HgN/A
6:50 AM54 °FPassing clouds.7 mph94%30.12 "HgN/A
6:20 AM54 °FPassing clouds.7 mph94%30.12 "HgN/A
5:50 AM54 °FClear.6 mph94%30.09 "Hg10 mi
5:20 AM55 °FClear.9 mph88%30.09 "Hg10 mi
Weather by CustomWeather, © 2014

See weather overviewHow to use our weather pages